THORAD AGENA D DEB, 42498

Orbit data source: Space-Track

THORAD AGENA D DEB, 42498 is space debris in SSO originally from a launch on Wed, 08 Apr 1970 UTC launched from the Air Force Western Test Range (AFWTR). Debris objects in space refer to the collection of defunct objects orbiting the Earth. Examples of debris include non-operational satellites, rocket bodies, and fragments generated from explosions, collisions, or faulty payload assembly.

Loading next visibility...
Identifier
42498, 1970-025RC
Orbit
SSO
Last TLE update
2 weeks ago
Origin
Manufacturer
Unknown
Mission
Spacecraft
Bus & Motor
Unknown
Mass
Unknown
Launch date (UTC)
1970-04-08 (55 years ago)
Launch vehicle
Unknown
Launch site
Air Force Western Test Range (AFWTR)
Object type
Payload
Rocket body
Debris
Shape & HBR
Unknown
Radar Cross Section
Small (<0.1 m²)

Expand to show TLE details & history

TLE from 2 weeks ago
0 THORAD AGENA D DEB
1 42498U 70025RC  25167.30106315  .00000934  00000-0  18406-2 0  9998
2 42498 100.5531 195.9501 0173080  67.8835 294.0561 13.33114121542121
Epoch: 2025-06-16T07:13Z
TLE epoch observation values (Epoch: 2025-06-16T07:13:31.856Z)
Latitude
0.00001°
Longitude
-177.24641°
Altitude
1,086.653 km
Speed
7.334 km/s
True Right ascension
13h 03m 48s
True Declination
0° 00' 00"
Sunlit
Object was in daylight at epoch
Visualization orbit readout
Latitude
55.24307°
Longitude
34.47191°
Altitude
1,147.213 km
Speed
7.283 km/s
Apparent Right ascension
02h 24m 58s
Apparent Declination
13° 00' 45"
Sunlit
Object is in daylight
Visualization observer readout
Local Sidereal Time
13:44:56
Azimuth
347.878° N
Elevation
-36.259°
Doppler factor
1
Orbital elements
Apogee altitude
1,262.401 km
Perigee altitude
1,002.416 km
Semi-major axis
7,510.545 km
Eccentricity
0.01731
Inclination
100.5531°
RAAN
195.9501°
Arg. of periapsis
67.8835°
True anomaly
Unknown
Mean anomaly
294.0561°
Eccentric anomaly
Unknown
Mean motion
3.33454 °/min
Orbital period
107.96 mins
BSTAR
0.0018406
Loading maneuver chart data...
Loading SW <> Apogee altitude chart data...

THORAD AGENA D DEB Visibility forecast

Observer location: undefined°, undefined°

Span
Click to sort rows by Start time (UTC) header in descending order
Start Az.
Max El. time (UTC)
Max El. Az.
Max El.
End time (UTC)
End Az.
6 mins2025-07-02 03:23:55.595Z238.088° WSW2025-07-02 03:26:55.595Z269.417° W15.112°2025-07-02 03:29:55.595Z300.023° NW
12 mins2025-07-02 14:39:55.595Z23.154° NE2025-07-02 14:45:55.595Z128.277° SE42.675°2025-07-02 14:51:55.595Z186.469° SSW
8 mins2025-07-02 16:27:55.595Z337.054° NNW2025-07-02 16:30:55.595Z304.673° NW21.655°2025-07-02 16:35:55.595Z255.512° W
10 mins2025-07-03 01:00:55.595Z127.005° SE2025-07-03 01:04:55.595Z76.113° E32.54°2025-07-03 01:10:55.595Z359.352° N
|